Terminal Aerodrome Forecast
Issued by NWS

Current Version | Previous Version | Graphics & Text | Print | Product List | Glossary On
Versions: 1 2 3 4 5 6 7 8 9 10 11 12 13 14 15 16 17 18 19 20 21 22 23 24 25 26 27 28 29 30 31 32 33 34 35 36 37
000
FTUS41 KRNK 211140
TAFLWB
TAF
KLWB 211140Z 2112/2212 00000KT P6SM SCT010 OVC035
     FM211500 VRB03KT P6SM BKN050
     FM220500 05003KT P6SM OVC060
     FM220900 05003KT P6SM -FZRAPL OVC025=

USA.gov is the U.S. government's official web portal to all federal, state and local government web resources and services.